Location: A O Calhoun Middle School
(33.2198°N, 97.1397°W)
Time: 04:46:43
(UTC+00:00)

Cosmos 1538 Rocket - Pass Details

Date: 11 July 2022
Orbit: 752 x 791 km, 74.0° (Epoch: 07 August)

Event Time Altitude Azimuth Distance (km) Brightness Sun altitude
Exits shadow 08:41:04 18° 125° (SE) 1,815 5.9 -27.0°
Maximum altitude 08:42:53 21° 98° (E) 1,650 5.9 -26.7°
Drops below altitude 10° 08:46:43 10° 50° (NE) 2,288 7.4 -26.3°
Sets 08:49:34 0° 35° (NE) 3,212 8.6 -26.0°
